TimeAWST,TemperatureF,Dew PointF,Humidity,Sea Level PressureIn,VisibilityMPH,Wind Direction,Wind SpeedMPH,Gust SpeedMPH,PrecipitationIn,Events,Conditions,WindDirDegrees,DateUTC
12:00 AM,75.2,66.2,73,29.92,-9999.0,SW,5.8,-,N/A,,Unknown,220,2012-10-13 16:00:00
1:00 AM,75.2,66.2,73,29.92,-9999.0,SSW,5.8,-,N/A,,Unknown,200,2012-10-13 17:00:00
2:00 AM,73.4,66.2,78,29.92,-9999.0,South,5.8,-,N/A,,Unknown,170,2012-10-13 18:00:00
3:00 AM,68,63,79,29.92,,North,1.2,,,,,350,2012-10-13 19:00:00
3:00 AM,68.0,62.6,83,29.92,-9999.0,North,1.2,-,N/A,,Unknown,350,2012-10-13 19:00:00
5:00 AM,64.4,60.8,88,29.95,-9999.0,North,3.5,-,N/A,,Unknown,10,2012-10-13 21:00:00
6:00 AM,65,63,91,29.95,,North,4.6,,,,,350,2012-10-13 22:00:00
6:00 AM,64.4,62.6,94,29.95,-9999.0,North,4.6,-,N/A,,Unknown,350,2012-10-13 22:00:00
7:00 AM,75.2,69.8,83,29.98,-9999.0,NW,4.6,-,N/A,,Unknown,310,2012-10-13 23:00:00
9:00 AM,87,65,37,29.98,,North,4.6,,,,,10,2012-10-14 01:00:00
9:00 AM,87.8,64.4,46,29.98,-9999.0,North,4.6,-,N/A,,Unknown,10,2012-10-14 01:00:00
11:00 AM,96.8,57.2,27,29.95,-9999.0,NW,8.1,-,N/A,,Unknown,320,2012-10-14 03:00:00
12:00 PM,98.6,55.4,24,29.92,-9999.0,WNW,5.8,-,N/A,,Unknown,300,2012-10-14 04:00:00
1:00 PM,102.2,53.6,20,29.89,-9999.0,NNE,6.9,-,N/A,,Unknown,20,2012-10-14 05:00:00
2:00 PM,102.2,51.8,18,29.86,-9999.0,West,6.9,-,N/A,,Unknown,260,2012-10-14 06:00:00
3:00 PM,100,54,14,29.83,,NNW,11.5,,,,,340,2012-10-14 07:00:00
3:00 PM,100.4,55.4,22,29.83,-9999.0,NNW,11.5,-,N/A,,Unknown,340,2012-10-14 07:00:00
4:00 PM,96.8,55.4,25,29.83,-9999.0,NW,10.4,-,N/A,,Unknown,310,2012-10-14 08:00:00
5:00 PM,95.0,51.8,23,29.86,-9999.0,NW,6.9,-,N/A,,Unknown,320,2012-10-14 09:00:00
6:00 PM,88,58,26,29.87,,NW,5.8,,,,,320,2012-10-14 10:00:00
6:00 PM,87.8,57.2,35,29.86,-9999.0,NW,5.8,-,N/A,,Unknown,320,2012-10-14 10:00:00
7:00 PM,82.4,60.8,48,29.89,-9999.0,NW,4.6,-,N/A,,Unknown,310,2012-10-14 11:00:00
8:00 PM,82.4,66.2,58,29.92,-9999.0,NNW,5.8,-,N/A,,Unknown,330,2012-10-14 12:00:00
9:00 PM,81,65,50,29.94,,West,5.8,,,,,280,2012-10-14 13:00:00
9:00 PM,80.6,66.2,61,29.95,-9999.0,West,5.8,-,N/A,,Unknown,280,2012-10-14 13:00:00
10:00 PM,80.6,64.4,58,29.95,-9999.0,WSW,5.8,-,N/A,,Unknown,250,2012-10-14 14:00:00
11:00 PM,75.2,62.6,65,29.95,-9999.0,SW,4.6,-,N/A,,Unknown,230,2012-10-14 15:00:00